Terminal Aerodrome Forecast
Issued by NWS

Home | Current Version | Previous Version | Text Only | Print | Product List | Glossary On
Versions: 1 2 3 4 5 6 7 8 9 10 11 12 13 14 15 16 17 18
000
FTUS44 KEPZ 291700
TAFTCS
TAF
KTCS 291723Z 2918/3018 03007KT P6SM FEW100
     FM292100 17005KT P6SM FEW120
     FM300300 29007KT P6SM SKC=

USA.gov is the U.S. government's official web portal to all federal, state and local government web resources and services.